This is the latest recevied weather packets stored in our database for station/object SP5FLS-15. If no packets are shown the sender has not sent any weather packets the latest 10 day(s).
| Time | Temp. | Humidity | Pressure | Rain* | Wind** | Luminosity | Snow |
|---|---|---|---|---|---|---|---|
| 1777691701 | 5° C | 40% | 1021.6 hPa | - | - | - | - |
| 1777691402 | 5° C | 40% | 1021.5 hPa | - | - | - | - |
| 1777691101 | 5° C | 41% | 1021.6 hPa | - | - | - | - |
| 1777690802 | 5° C | 43% | 1021.5 hPa | - | - | - | - |
| 1777690502 | 5° C | 45% | 1021.7 hPa | - | - | - | - |
| 1777690202 | 5° C | 45% | 1021.6 hPa | - | - | - | - |
| 1777689902 | 5° C | 44% | 1021.6 hPa | - | - | - | - |
| 1777689602 | 5° C | 46% | 1021.8 hPa | - | - | - | - |
| 1777689302 | 5° C | 46% | 1021.9 hPa | - | - | - | - |
| 1777689002 | 5° C | 47% | 1021.9 hPa | - | - | - | - |
| 1777688702 | 5° C | 47% | 1021.9 hPa | - | - | - | - |
| 1777688402 | 5° C | 48% | 1021.9 hPa | - | - | - | - |
| 1777688102 | 5.56° C | 49% | 1022.1 hPa | - | - | - | - |
| 1777687802 | 5.56° C | 48% | 1021.7 hPa | - | - | - | - |
| 1777687502 | 5.56° C | 48% | 1021.6 hPa | - | - | - | - |
| 1777687202 | 5.56° C | 48% | 1021.8 hPa | - | - | - | - |
| 1777686902 | 5.56° C | 50% | 1021.9 hPa | - | - | - | - |
| 1777686602 | 5.56° C | 49% | 1021.7 hPa | - | - | - | - |
| 1777686301 | 5.56° C | 49% | 1021.7 hPa | - | - | - | - |
| 1777686002 | 5.56° C | 49% | 1021.8 hPa | - | - | - | - |
| 1777685702 | 5.56° C | 50% | 1021.8 hPa | - | - | - | - |
| 1777685402 | 5.56° C | 52% | 1021.8 hPa | - | - | - | - |
| 1777685102 | 5.56° C | 48% | 1021.8 hPa | - | - | - | - |
| 1777684802 | 5.56° C | 51% | 1021.9 hPa | - | - | - | - |
| 1777684502 | 5.56° C | 53% | 1021.8 hPa | - | - | - | - |
* Rain since midnight (hover to see other rain measurements)
** Current wind speed in m/s (hover to see current wind gust speed)